Regional Weather Roundup
Issued by NWS

Home | Current Version | Previous Version | Text Only | Print | Product List | Glossary Off
Versions: 1 2 3 4 5 6 7 8 9 10 11 12 13 14 15 16 17 18 19 20 21 22 23 24 25 26 27 28 29 30 31 32 33 34 35 36 37 38 39 40 41 42 43 44 45 46 47 48 49 50

000
ASUS45 KTFX 261410
RWRMT
MONTANA REGIONAL WEATHER ROUNDUP
NATIONAL WEATHER SERVICE GREAT FALLS MT
800 AM MDT FRI MAY 26 2017

NOTE: "FAIR" INDICATES FEW OR NO CLOUDS BELOW 12000 FEET WITH NO
SIGNIFICANT WEATHER AND/OR OBSTRUCTIONS TO VISIBILITY.

MTZ001>007-043-261500-
WEST OF THE DIVIDE

CITY           SKY/WX    TMP DP  RH WIND       PRES   REMARKS
KALISPELL      MOSUNNY   48  41  76 N12       29.95R
MISSOULA       SUNNY     49  38  65 CALM      29.95R
BUTTE          CLOUDY    39  30  70 CALM      29.96R
MULLAN PASS    SUNNY     43  32  65 SE5       29.96R
ANACONDA         N/A     46  32  57 CALM      29.96S
DEER LODGE       N/A     39  36  87 CALM      29.99R
EUREKA           N/A     45  43  93 CALM      29.99R
HAMILTON         N/A     45  36  70 CALM      29.94R
RONAN            N/A     51  40  66 N7        29.99S
$$

MTZ008-052>055-261500-
SOUTHWEST MONTANA

CITY           SKY/WX    TMP DP  RH WIND       PRES   REMARKS
BOZEMAN        SUNNY     42  34  73 VRB3      29.95F
DILLON         CLOUDY    44  31  60 NE10      29.91S
W YELLOWSTONE  CLOUDY    39  30  70 CALM      29.92F
ENNIS          PTSUNNY   45  34  65 N18       29.95F
THREE FORKS      N/A     40  36  86 CALM      29.95S
$$

MTZ009-010-012-014-046-048-049-054-261500-
EAST SLOPES AND CENTRAL MONTANA

CITY           SKY/WX    TMP DP  RH WIND       PRES   REMARKS
CUT BANK       SUNNY     46  38  73 W5        29.94S
GREAT FALLS    SUNNY     48  39  71 SW6       29.96S
MALMSTROM AFB  SUNNY     47  40  76 SW3       29.96S
HELENA         MOSUNNY   49  39  68 CALM      29.96R
CHOTEAU          N/A     46  37  71 S3        29.97S
CONRAD           N/A     51  48  89 W5        29.97S
$$

MTZ011-013-016-021-045-047-050-051-261500-
NORTH CENTRAL MONTANA

CITY           SKY/WX    TMP DP  RH WIND       PRES   REMARKS
HAVRE          CLOUDY    49  41  74 SW12      29.91R
LEWISTOWN      CLOUDY    45  38  76 W8        29.96R
N BAR RANCH      N/A     46  37  71 NW12      29.97S
CHINOOK          N/A     48  39  71 W12       29.90R
FORT BENTON      N/A     48  39  71 CALM        N/A
$$

MTZ017>020-022>027-061-062-261500-
NORTHEAST MONTANA

CITY           SKY/WX    TMP DP  RH WIND       PRES   REMARKS
GLASGOW        MOSUNNY   51  40  65 W12       29.83R
JORDAN           N/A     52  40  63 W10       29.88R
SIDNEY         PTSUNNY   53  39  59 W15G23    29.79R
WOLF POINT     SUNNY     55  39  54 W16       29.82R
MALTA          SUNNY     50  41  71 W15       29.85S
PLENTYWOOD       N/A     50  41  71 NW26      29.72R
POPLAR           N/A     54  37  54 W17G23    29.79S
$$

MTZ028>42-056>058-261500-
SOUTHCENTRAL AND SOUTHEAST MONTANA

CITY           SKY/WX    TMP DP  RH WIND       PRES   REMARKS
BAKER          SUNNY     50  37  61 W16       29.86S
BILLINGS       MOSUNNY   45  35  68 S8        29.95R
LIVINGSTON     SUNNY     40  34  79 CALM      29.95S
MILES CITY     SUNNY     55  37  50 NW8       29.89R
BIG TIMBER     SUNNY     41  32  70 W7        29.98F
FORSYTH          N/A     50  37  62 SW8       29.92R
LAUREL           N/A     45  34  65 S1        29.94F
ROUNDUP          N/A     51  37  58 W10       29.85S
$$

REGIONAL REPORTS...DAKOTAS

CITY           SKY/WX    TMP DP  RH WIND       PRES   REMARKS
WILLISTON      CLOUDY    53  41  63 W22       29.74R
MINOT          CLOUDY    55  43  63 W13G23    29.66S
DICKINSON      CLOUDY    49  37  63 W21G29    29.78R
BEACH          CLOUDY    48  41  76 W16       29.85F
CROSBY         CLOUDY    50  48  93 NW24G32   29.70R
TIOGA          CLOUDY    50  48  93 W23G30    29.72R
WATFORD CITY   CLOUDY    50  41  71 W16G26    29.75R
BISMARCK       CLOUDY    55  41  59 W16       29.76R
GRAND FORKS    MOSUNNY   62  49  62 W13       29.63R
FARGO          SUNNY     61  49  64 W13       29.67R
BUFFALO SD       N/A     53  37  54 NW23G29   29.81R
RAPID CITY     SUNNY     57  35  43 N7        29.90S
$$

REGIONAL REPORTS...WYOMING/IDAHO/WASHINGTON

CITY           SKY/WX    TMP DP  RH WIND       PRES   REMARKS
GILLETTE       SUNNY     51  37  58 W5        29.93S
SHERIDAN       SUNNY     51  38  60 CALM      29.95R
BUFFALO WY     MOSUNNY   50  36  58 S6        29.96S
CODY           CLOUDY    47  35  63 CALM      29.95F
YELLOWSTONE LA   N/A     36  28  73 VRB5      29.94F
IDAHO FALLS    LGT RAIN  43  41  93 CALM      29.86R
SALMON         CLOUDY    46  41  81 CALM      29.89S
BOISE          CLOUDY    50  44  80 W6        29.86R
SPOKANE        MOSUNNY   50  42  74 N6        29.93R
$$

REGIONAL REPORTS...ALBERTA

CITY           SKY/WX    TMP DP  RH WIND       PRES   REMARKS
EDMONTON       MOSUNNY   50  43  76 W7        29.78S
CALGARY        MOSUNNY   50  34  53 S6        29.89R
LETHBRIDGE     MOSUNNY   48  39  71 W8        29.92R
MEDICINE HAT   MOSUNNY   52  43  71 SW9       29.87R
WATERTON GATE    N/A     43  37  81 S9          N/A
CARDSTON         N/A     43  36  75 CALM        N/A
MILK RIVER       N/A     48  39  71 W12         N/A
ONEFOUR          N/A     45  41  87 NW16        N/A
$$

REGIONAL REPORTS...SASKATCHEWAN

CITY           SKY/WX    TMP DP  RH WIND       PRES   REMARKS
SWIFT CURRENT  PTSUNNY   46  39  76 W15G23    29.76R
REGINA         CLOUDY    48  43  81 W24G31    29.65R
SASKATOON      MOSUNNY   52  43  71 NW18      29.67R
CYPRESS HILLS    N/A     45  36  70 W9          N/A
VAL MARIE        N/A     54  39  58 NW14        N/A
ROCKGLEN         N/A     50  39  66 NW20G30     N/A
$$



USA.gov is the U.S. government's official web portal to all federal, state and local government web resources and services.